Location: Appingedam
(53.3222°N, 6.8488°E)
Time: 11:16:44
(UTC+00:00)

COSMOS 2428 - Pass Details

Date: 15 May 2026
Orbit: 844 x 855 km, 70.9° (Epoch: 8 June)

Event Time Altitude Azimuth Distance (km) Brightness Sun altitude
Rises 22:48:50 0° 326° (NW) 3,427 7.1 -17.1°
Reaches altitude 10° 22:51:21 10° 321° (NW) 2,485 6.1 -17.2°
Maximum altitude 22:56:50 51° 247° (WSW) 1,059 3.1 -17.3°
Enters shadow 22:59:33 28° 187° (S) 1,533 3.5 -17.4°
